Home > Weather > Campbell River > Past weeks

Flag for Canada Weather for the Past 2 Weeks in Campbell River, British Columbia, Canada

Now
48 °F

Clear.


Feels Like: 48 °F
Forecast: 46 / 72 °F
Wind: No wind

Location: Comox

Current Time: May 2, 2016 at 5:53:17 AM

Latest Report: May 2, 2016 at 5:00 AM


Visibility: 20 mi

Pressure: 29.98 "Hg

Humidity: 71%

Dew Point: 39 °F

Location of Campbell RiverLocation

Historic Weather in Campbell River — Graph

°F

Campbell River Temperature Yesterday

Maximum temperature yesterday: 68 °F (at 4:00 PM)
Minimum temperature yesterday: 45 °F (at 6:00 AM)
Average temperature yesterday: 58 °F

High & Low Weather Summary for the Past Weeks

 TemperatureHumidityPressure
High75 °F (Apr 20, 6:00 PM)100% (Apr 18, 6:00 AM)30.40 "Hg (Apr 18, 6:00 AM)
Low41 °F (Apr 25, 6:00 AM)39% (Apr 20, 6:00 PM)29.60 "Hg (Apr 22, 9:00 AM)
Average54 °F73%30.03 "Hg
* Reported Apr 17 4:00 AM — May 2 4:00 AM, Campbell River, Weather by CustomWeather, © 2016

Note: Actual official high and low records may vary slightly from our data, if they occured in-between our weather recording intervals... More about our weather records

Advertising

Campbell River Weather History for the Previous 24 Hours

Scroll right to see more
 ConditionsComfort  
Time TempWeatherWind HumidityBarometerVisibility
4:00 AM
Mon, May 2
48 °FClear.No wind76%29.97 "Hg20 mi
3:00 AM48 °FClear.2 mph76%29.96 "Hg20 mi
2:00 AM50 °FClear.No wind71%29.96 "Hg20 mi
1:00 AM52 °FClear.5 mph67%29.95 "Hg20 mi
12:00 AM52 °FClear.No wind72%29.96 "Hg20 mi
11:00 PM
Sun, May 1
55 °FPassing clouds.No wind63%29.96 "Hg20 mi
10:00 PM57 °FPassing clouds.No wind55%29.95 "Hg20 mi
9:00 PM61 °FPassing clouds.No wind55%29.96 "Hg20 mi
8:00 PM66 °FPassing clouds.2 mph43%29.96 "Hg20 mi
7:00 PM68 °FPassing clouds.2 mph40%29.97 "Hg20 mi
6:00 PM68 °FPassing clouds.3 mph40%29.99 "Hg20 mi
5:00 PM68 °FPassing clouds.5 mph46%30.02 "Hg20 mi
4:00 PM68 °FPassing clouds.5 mph40%30.05 "Hg20 mi
3:00 PM66 °FPassing clouds.5 mph49%30.08 "Hg20 mi
2:00 PM63 °FPassing clouds.2 mph59%30.11 "Hg20 mi
1:00 PM61 °FScattered clouds.2 mph63%30.14 "Hg20 mi
12:00 PM59 °FPartly sunny.6 mph63%30.16 "Hg20 mi
11:00 AM59 °FPartly sunny.8 mph63%30.19 "Hg20 mi
10:00 AM59 °FPartly sunny.7 mph63%30.21 "Hg20 mi
9:00 AM55 °FPartly sunny.9 mph67%30.23 "Hg20 mi
8:00 AM54 °FPartly sunny.2 mph67%30.25 "Hg20 mi
7:00 AM48 °FPartly sunny.3 mph76%30.26 "Hg20 mi
6:00 AM45 °FPassing clouds.2 mph87%30.27 "Hg20 mi
5:00 AM48 °FPassing clouds.5 mph76%30.27 "Hg20 mi
Weather by CustomWeather, © 2016

See weather overviewHow to use our weather pages